Location: Wildcat Hills Observatory
(41.6350°N, 103.6812°W)
Time: 05:14:21
(UTC-06:00)

Daily predictions for brighter satellites

Satellite Brightness Start Highest point End
(mag) Time Altitude Azimuth Time Altitude Azimuth Time Altitude Azimuth
Cosmos 1980 Rocket 4.4 02:30:15 20° NNE 02:30:15 20° NNE 02:31:58 10° NNE
CENTAUR R/B 3.9 02:43:40 36° NE 02:43:40 36° NE 02:47:33 10° NE
Cosmos 2263 Rocket 4.4 02:36:09 10° N 02:38:04 19° N 02:38:04 19° N
SL-16 R/B 3.6 03:18:29 36° N 03:18:29 36° N 03:22:00 10° NNW
ARIANE 5 R/B 4.3 03:11:54 10° NNE 03:14:22 28° NNE 03:14:22 28° NNE
Cosmos 2322 Rocket 3.2 03:40:45 39° N 03:40:45 39° N 03:44:21 10° NNE
SL-16 R/B 3.1 03:46:02 41° N 03:46:02 41° N 03:49:52 10° NNE
Resurs 1-4 Rocket 3.2 03:46:08 10° N 03:49:17 36° N 03:49:17 36° N
Okean O Rocket 3.8 03:49:38 10° NE 03:53:03 21° E 03:54:01 20° ESE
COSMOS 2428 4.2 03:51:56 26° SE 03:53:24 29° ESE 03:58:13 10° NE
CZ-2D R/B 3.1 03:48:31 10° N 03:52:07 41° N 03:52:07 41° N
Lacrosse 4 Rocket4.304:03:24SE04:03:24SE03:53:17NNW
DELTA 2 R/B (1) 4.5 04:02:43 40° SE 04:02:43 40° SE 04:06:49 10° E
Cosmos 1455 Rocket 4.2 04:00:13 10° N 04:03:47 42° NE 04:03:47 42° NE
Cosmos 2360 Rocket 2.1 04:09:38 82° NE 04:09:38 82° NE 04:15:04 10° NNE
Cosmos 2184 Rocket 4.1 04:03:46 10° N 04:10:00 75° E 04:12:43 36° SSE
Cosmos 1980 Rocket 4.2 04:12:01 15° NW 04:12:01 15° NW 04:14:29 10° N
ADEOS II 3.6 04:10:23 10° NNE 04:15:08 33° E 04:18:42 16° SSE
Gblst 52 Del rocket 4.5 04:14:40 45° NW 04:16:23 68° NNE 04:22:32 10° ESE
Cosmos 1340 4.1 04:19:10 36° NE 04:19:10 36° NE 04:21:38 10° NNE
ADEOS Rocket 3.3 04:19:41 10° N 04:24:09 42° NW 04:24:09 42° NW
ATLAS 5 CENTAUR R/B 4.2 04:21:27 10° NNW 04:26:34 29° NE 04:32:03 10° ESE
Cosmos 1536 Rocket 3.8 04:30:12 64° SE 04:30:36 68° E 04:35:04 10° NNE
Cosmos 2208 Rocket 4.5 04:29:24 38° SSE 04:31:19 61° ESE 04:36:42 10° NNE
CENTAUR R/B 3.9 04:30:50 23° NW 04:32:18 25° NNW 04:38:01 10° NNE
SL-08 ROCKET BODY 4.3 04:27:13 10° NNW 04:32:58 59° W 04:33:00 59° W
USA 215 3.4 04:29:07 10° ESE 04:35:39 76° NE 04:42:12 10° NW
Cosmos 1743 4.0 04:32:19 10° N 04:36:00 39° ENE 04:39:37 10° SSE
Cosmos 2333 Rocket 3.8 04:36:04 10° SSE 04:41:03 32° ESE 04:46:05 10° NE
PSLV R/B 4.4 04:39:09 10° NNE 04:43:22 49° E 04:45:55 22° SSE
Cosmos 2154 Rocket 4.1 04:37:46 10° N 04:43:59 73° E 04:50:10 10° SSE
CZ-4B R/B 2.8 04:40:31 10° NNE 04:44:07 68° ESE 04:44:12 68° ESE
Cosmos 2322 3.9 04:46:43 48° W 04:47:39 54° WNW 04:53:17 10° NNE
EO 1 Del DPAF 3.4 04:48:44 11° SSE 04:52:26 73° ENE 04:56:18 10° N
ARIANE 5 R/B 4.3 04:52:20 10° NNW 04:54:43 17° NW 04:54:43 17° NW
Meteor 1-18 Rocket 4.4 04:54:55 43° W 04:55:45 46° WNW 05:01:08 10° N
Meteor 1-12 Rocket 4.4 04:56:23 10° NNW 05:01:49 49° W 05:05:05 23° SSW
Cosmos 1610 Rocket 4.5 04:56:22 10° NNW 05:02:32 61° W 05:08:45 10° S
Nadezhda 1 Rocket 4.0 05:01:18 31° SW 05:04:04 55° W 05:10:03 10° N
Cosmos 2181 Rocket 4.4 04:59:24 10° S 05:05:31 66° E 05:11:47 10° NNE
Tiangong 2 1.6 05:06:42 45° SSE 05:06:42 45° SSE 05:09:12 10° ESE
Cosmos 1570 Rocket 4.0 05:04:44 37° SW 05:06:39 60° WNW 05:11:51 10° NNE
Cosmos 2333 4.1 05:03:49 28° SSW 05:06:52 80° WNW 05:12:37 10° NNE
Okean 1 4.4 05:07:41 29° NW 05:07:41 29° NW 05:10:38 10° NNW
Cosmos 1844 3.9 05:01:25 10° NNW 05:07:12 74° ENE 05:12:54 10° SSE
Cosmos 1898 Rocket 4.1 05:03:33 10° NNW 05:08:42 58° ENE 05:13:47 10° SSE
Meteor 1-13 Rocket 4.1 05:06:07 14° SSW 05:10:53 82° W 05:16:32 10° N
MOS 1 Rocket 3.8 05:08:02 10° N 05:12:18 35° WNW 05:12:55 33° W
CZ-4B DEB 4.1 05:09:13 10° N 05:14:48 75° WNW 05:19:44 13° SSW
CZ-4B R/B 3.2 05:09:35 10° N 05:15:14 75° WNW 05:20:11 13° SSW
IRS-P2 Rocket 4.5 05:11:46 10° NNE 05:17:00 81° WNW 05:22:10 10° SSW
ERS-2 2.9 05:15:14 10° NNE 05:18:53 53° E 05:22:29 10° S
Cosmos 1975 4.5 05:17:01 10° NW 05:18:44 19° NW 05:18:44 19° NW
Cosmos 1238 Rocket 2.2 05:21:10 48° W 05:21:10 48° W 05:24:02 10° N
IRS-1C Rocket 4.2 05:18:08 10° N 05:23:18 57° WNW 05:27:23 16° SW
Cosmos 2322 Rocket 4.2 05:22:34 11° WNW 05:23:57 12° NW 05:25:50 10° NNW
Cosmos 2341 Rocket 3.9 05:18:35 10° N 05:24:49 74° W 05:30:59 10° S
Cosmos 1980 4.2 05:20:53 10° S 05:26:27 62° ESE 05:32:02 10° NNE
IRAS Rocket 4.2 05:23:20 10° N 05:28:49 64° WNW 05:34:19 10° SSW
Okean O Rocket 2.3 05:25:25 10° N 05:29:29 36° WNW 05:31:30 24° WSW
SL-16 R/B 4.3 05:27:59 10° WNW 05:29:34 11° NW 05:31:09 10° NNW
CZ-2C R/B 3.8 05:25:38 10° S 05:30:05 50° W 05:34:30 10° NNW
SL-8 R/B 4.3 05:26:50 13° WNW 05:31:05 55° NNE 05:35:46 10° E
COSMO-SKYMED 1 4.4 05:29:27 10° SE 05:33:22 34° ENE 05:37:17 10° N
Cosmos 1763 Rocket 4.4 05:30:24 10° S 05:35:16 49° ESE 05:40:11 10° NNE
Cosmos 1025 Rocket 3.0 05:30:55 10° S 05:35:18 90° WSW 05:39:44 10° N
Cosmos 2219 Rocket 2.1 05:30:15 13° SSW 05:35:18 72° WNW 05:40:55 10° NNE
Cosmos 1437 3.5 05:33:03 10° S 05:36:16 55° E 05:39:29 10° NNE
COSMOS 2428 3.2 05:33:59 20° WSW 05:37:28 41° WNW 05:42:50 10° N
Lacrosse 4 Rocket 3.4 05:40:03 13° SSW 05:40:03 13° SSW 05:40:40 10° SSW
Cosmos 1937 Rocket 3.7 05:32:32 10° NNW 05:37:53 76° ENE 05:43:10 10° SSE
Meteor 2-9 Rocket 4.1 05:34:36 10° NNW 05:40:18 78° W 05:45:48 10° S
Cosmos 1844 Rocket 2.9 05:37:07 10° NW 05:42:22 43° WSW 05:47:36 10° S
Okean-O 2.6 05:39:01 10° NNE 05:43:29 88° ESE 05:47:55 10° SSW
Meteor 1-23 Rocket 4.3 05:38:05 10° S 05:43:54 84° W 05:49:43 10° N
NOSS 0 Rocket 3.9 05:38:45 10° SSW 05:44:56 88° WNW 05:51:08 10° NNE
Cosmos 1892 Rocket 4.2 05:42:02 10° S 05:46:16 59° E 05:50:35 10° NNE
DELTA 2 R/B (1) 3.6 05:43:29 18° W 05:47:42 73° S 05:53:14 10° E
Cosmos 841 Rocket 4.3 05:44:13 10° S 05:49:13 53° ESE 05:54:13 10° NNE
USA 116 4.0 05:45:02 10° S 05:49:13 62° W 05:53:59 10° NNW
NOAA 6 4.4 05:46:51 10° NNE 05:51:58 68° ESE 05:57:03 10° S
Cosmos 2360 Rocket 3.9 05:51:24 12° W 05:54:10 16° NW 05:57:36 10° N
ADEOS II 2.9 05:50:11 10° N 05:54:46 31° WNW 05:59:20 10° SW
Cosmos 2298 Rocket 4.1 05:52:21 10° NNW 05:57:36 59° WSW 06:02:49 10° S
Cosmos 1441 Rocket 4.1 05:53:45 10° S 05:57:37 55° E 06:01:32 10° NNE
Cosmos 2285 Rocket 4.1 05:51:35 10° SSW 05:57:56 63° WNW 06:04:21 10° NNE
Cosmos 2278 Rocket 2.2 05:52:36 10° NNW 05:58:17 78° WSW 06:03:56 10° SSE
Aureole 2 Rocket 2.4 05:54:58 10° SSW 05:58:36 64° WNW 06:01:56 10° NNE
Cosmos 1814 Rocket 4.0 05:54:54 10° SSW 06:00:05 70° WNW 06:05:15 10° NNE
CZ-4C R/B 4.4 05:53:46 10° NNW 06:00:14 37° NE 06:07:19 10° ESE
Cosmos 1515 4.1 05:58:30 10° S 06:02:20 68° E 06:06:10 10° NNE
Cosmos 2237 Rocket 2.2 05:57:40 10° SSW 06:03:20 73° WNW 06:09:03 10° NNE
Cosmos 405 Rocket 2.9 05:59:56 10° SSW 06:03:55 54° WNW 06:07:53 10° N
Cosmos 1666 3.7 06:00:44 10° NNW 06:03:59 26° W 06:07:15 10° SSW
Cosmos 1959 Rocket 4.4 05:59:19 10° NNW 06:05:24 69° W 06:11:28 10° S
Cosmos 371 Rocket 3.6 06:02:44 10° SSW 06:07:34 74° ESE 06:12:27 10° NNE
Okean 2 3.6 06:04:30 10° SSW 06:08:34 51° W 06:12:40 10° N
Cosmos 1346 3.8 06:06:01 10° S 06:08:47 52° E 06:11:35 10° NNE
Meteor 1-15 Rocket 4.4 06:03:16 10° NNW 06:09:07 62° W 06:14:56 10° S
Meteor 2-4 Rocket 4.1 06:04:37 10° SW 06:09:50 40° WNW 06:14:57 10° N
Cosmos 332 Rocket 3.8 06:06:24 10° SSW 06:11:18 78° WNW 06:16:13 10° NNE
ATLAS 5 CENTAUR R/B 2.5 06:05:43 10° NW 06:11:41 64° WSW 06:18:09 10° SSE
Geosat 4.5 06:08:12 10° SE 06:13:11 67° ENE 06:18:11 10° NNW
Cosmos 2297 4.3 06:07:47 10° NNW 06:13:32 66° ENE 06:19:13 10° SSE
Cosmos 2366 rocket 4.1 06:12:39 10° NNW 06:18:54 62° W 06:25:09 10° S
USA 215 4.0 06:13:21 10° S 06:18:59 31° SW 06:24:39 10° WNW
SKYMED 2 3.5 06:17:01 10° S 06:21:20 71° WSW 06:25:41 10° NNW
Cosmos 2058 Rocket 3.1 06:17:11 10° NNW 06:21:39 70° W 06:26:04 10° S
